(281207) = 2007 GE50

Discovered at Socorro on 2007-04-15 by LINEAR.

Orbit

Orbit type: Hungaria

Note: WebGL enabled browser required.

epoch2024-03-31.0
epoch JD2460400.5
perihelion date2024-03-14.11296
perihelion JD2460383.61296
argument of perihelion (°)38.53053
ascending node (°)213.33581
inclination (°)21.04417
eccentricity0.0786707
perihelion distance (AU)1.8164073
Tisserand w.r.t. Jupiter3.8
ΔV w.r.t. Earth (km/sec)10.7
semimajor axis (AU)1.9715072
mean anomaly (°)6.01257
mean daily motion (°/day)0.35604620
aphelion distance (AU)2.127
period (years)2.77
P-vector [x]-0.33406685
P-vector [y]-0.92904424
P-vector [z]-0.15898471
Q-vector [x]0.92166064
Q-vector [y]-0.35729705
Q-vector [z]0.15126297
absolute magnitude17.59
phase slope0.15
uncertainty0
referenceMPEC 2024-E123
observations used358
oppositions11
arc length (days)9743
first opposition used1996
last opposition used2022
residual rms (arc-secs)0.80
perturbers coarse indicatorM-v
perturbers precise indicator003Ek
first observation date used1996-04-18.0
last observation date used2022-12-21.0
computer nameMPCLINUX
JD of orbit computation2456612.499129
perihelion JD uncertainty (days)2.0665E-04
argument of perihelion uncertainty (°)8.3423E-05
ascending node uncertainty (°)1.8798E-05
inclination uncertainty (°)8.9248E-06
eccentricity uncertainty 9.5628E-08
perihelion distance uncertainty (AU)1.8175E-07
Minimum Orbit Intersection Distances (in AU)
for orbit epoch: 2460200.5, reference: E2024-C82
Mercury1.36869
Venus1.10486
Earth0.82672
Mars0.25459
Jupiter2.87331
Saturn7.00024
Uranus16.5833
Neptune27.7447

Observations

373 total observations over interval: 1996 04 18.40172 – 2022 12 21.20156
These data are available for download (format description).

Date (UT) J2000 RA J2000 Dec Magn Location Ref
1996 04 18.40172 15 12 14.36 -13 50 52.1 19.6 V 691 – Steward Observatory, Kitt Peak-Spacewatch MPS 210465
1996 04 18.42693 15 12 13.30 -13 50 17.5   691 – Steward Observatory, Kitt Peak-Spacewatch MPS 210465
1996 04 18.44834 15 12 12.41 -13 49 47.5   691 – Steward Observatory, Kitt Peak-Spacewatch MPS 210465
2005 09 30.37153 01 48 12.13 +20 54 37.9 21.1 V 703 – Catalina Sky Survey MPS 210465
2005 09 30.38087 01 48 11.59 +20 54 29.2 20.1 V 703 – Catalina Sky Survey MPS 210465
2005 09 30.39018 01 48 11.23 +20 54 18.7 20.6 V 703 – Catalina Sky Survey MPS 210465
2005 09 30.39946 01 48 10.80 +20 54 10.3 19.6 V 703 – Catalina Sky Survey MPS 210465
2005 10 29.27499 01 21 24.80 +11 52 09.3 20.2 V 703 – Catalina Sky Survey MPS 210465
2005 10 29.28090 01 21 24.37 +11 52 01.8 20.3 V 703 – Catalina Sky Survey MPS 210465
2005 10 29.28683 01 21 24.01 +11 51 55.2 19.8 V 703 – Catalina Sky Survey MPS 210465
2005 10 29.29277 01 21 23.72 +11 51 49.1 19.8 V 703 – Catalina Sky Survey MPS 210465
2007 03 14.62072 13 55 45.30 -25 28 35.6 19.6 V E12 – Siding Spring Survey MPS 210465
2007 03 14.63038 13 55 45.12 -25 28 30.3 18.8 V E12 – Siding Spring Survey MPS 210465
2007 03 14.64038 13 55 45.12 -25 28 26.0 20.0 V E12 – Siding Spring Survey MPS 210465
2007 03 14.65049 13 55 44.79 -25 28 18.9 19.1 V E12 – Siding Spring Survey MPS 210465
2007 04 15.31874 13 38 31.40 -16 17 56.0 18.8   704 – Lincoln Laboratory ETS, New Mexico MPS 207052
2007 04 15.32832 13 38 30.86 -16 17 42.9 19.4   704 – Lincoln Laboratory ETS, New Mexico MPS 207052
2007 04 15.33858 13 38 30.28 -16 17 28.3 18.9   704 – Lincoln Laboratory ETS, New Mexico MPS 207052
2007 04 15.34812 13 38 29.73 -16 17 14.4 19.3   704 – Lincoln Laboratory ETS, New Mexico MPS 207052
2007 04 15.35766 13 38 29.30 -16 17 00.5 19.2   704 – Lincoln Laboratory ETS, New Mexico MPS 207052
2007 04 18.31124 13 36 00.90 -15 05 19.9 18.6   704 – Lincoln Laboratory ETS, New Mexico MPS 207052
2007 04 18.32045 13 36 00.44 -15 05 05.3 18.8   704 – Lincoln Laboratory ETS, New Mexico MPS 207052
2007 04 18.32982 13 35 59.97 -15 04 51.8 18.9   704 – Lincoln Laboratory ETS, New Mexico MPS 207052
2007 04 18.33905 13 35 59.42 -15 04 38.5 18.9   704 – Lincoln Laboratory ETS, New Mexico MPS 207052
2007 04 22.32708 13 32 42.15 -13 25 51.3 19.0   704 – Lincoln Laboratory ETS, New Mexico MPS 208195
2007 04 22.33644 13 32 41.56 -13 25 38.1 19.3   704 – Lincoln Laboratory ETS, New Mexico MPS 208195
2007 04 22.34573 13 32 41.20 -13 25 24.0 18.7   704 – Lincoln Laboratory ETS, New Mexico MPS 208195
2007 04 22.35512 13 32 40.67 -13 25 09.5 19.2   704 – Lincoln Laboratory ETS, New Mexico MPS 208195
2007 05 07.28097 13 22 35.00 -07 24 54.0 19.4 V 703 – Catalina Sky Survey MPS 209087
2007 05 07.29085 13 22 34.71 -07 24 39.5 19.5 V 703 – Catalina Sky Survey MPS 209087
2007 05 07.30071 13 22 34.32 -07 24 27.1 19.5 V 703 – Catalina Sky Survey MPS 209087
2007 05 07.31059 13 22 33.96 -07 24 13.7 19.1 V 703 – Catalina Sky Survey MPS 209087
2007 05 16.16661 13 19 21.44 -04 20 56.9 19.2 R 699 – Lowell Observatory-LONEOS MPS 209087
2007 05 16.19039 13 19 21.08 -04 20 29.1   699 – Lowell Observatory-LONEOS MPS 209087
2007 05 16.21415 13 19 20.81 -04 20 01.8   699 – Lowell Observatory-LONEOS MPS 209087
2007 05 16.23793 13 19 20.49 -04 19 33.5   699 – Lowell Observatory-LONEOS MPS 209087
2007 05 24.23028 13 18 41.72 -02 04 44.8 19.7 V G96 – Mt. Lemmon Survey MPS 210180
2007 05 24.23697 13 18 41.72 -02 04 38.7 19.7 V G96 – Mt. Lemmon Survey MPS 210180
2007 05 24.24365 13 18 41.76 -02 04 32.9 19.8 V G96 – Mt. Lemmon Survey MPS 210180
2008 10 08.42425 04 43 21.21 +13 44 23.4 20.3 V G96 – Mt. Lemmon Survey MPS 259320
2008 10 08.43045 04 43 21.21 +13 44 18.7 20.2 V G96 – Mt. Lemmon Survey MPS 259320
2008 10 08.43662 04 43 21.25 +13 44 13.9 20.2 V G96 – Mt. Lemmon Survey MPS 259320
2008 11 06.36437 04 31 15.74 +06 18 33.5 19.6 V G96 – Mt. Lemmon Survey MPS 263291
2008 11 06.36920 04 31 15.52 +06 18 28.7 19.9 V G96 – Mt. Lemmon Survey MPS 263292
2008 11 06.37398 04 31 15.24 +06 18 24.0 20.1 V G96 – Mt. Lemmon Survey MPS 263292
2008 11 06.37885 04 31 14.91 +06 18 18.9 19.5 V G96 – Mt. Lemmon Survey MPS 263292
2010 06 04.577265 17 54 25.800 +09 35 13.85 19.39 i F51 – Pan-STARRS 1, Haleakala MPS 337381
2010 06 04.589099 17 54 25.116 +09 35 25.97 19.39 i F51 – Pan-STARRS 1, Haleakala MPS 337381
2010 06 11.42253 17 47 47.97 +11 21 51.8 19.1 R 926 – Tenagra II Observatory, Nogales MPS 357486
2010 06 11.43637 17 47 47.09 +11 22 03.1 19.3 R 926 – Tenagra II Observatory, Nogales MPS 357486
2010 06 11.44571 17 47 46.49 +11 22 10.6 19.2 R 926 – Tenagra II Observatory, Nogales MPS 357486
2010 06 18.26402 17 40 46.75 +12 43 25.5 19.6 C 704 – Lincoln Laboratory ETS, New Mexico MPS 383999
2010 06 18.29384 17 40 44.69 +12 43 42.4 19.5 C 704 – Lincoln Laboratory ETS, New Mexico MPS 383999
2010 06 18.30382 17 40 44.04 +12 43 49.5 19.3 C 704 – Lincoln Laboratory ETS, New Mexico MPS 383999
2013 08 24.33432 21 05 43.566 +23 13 42.78 19.5 i F51 – Pan-STARRS 1, Haleakala MPS 474825
2013 08 24.34606 21 05 42.970 +23 13 32.98 19.5 i F51 – Pan-STARRS 1, Haleakala MPS 474825
2013 08 30.29799 21 01 25.056 +21 42 42.63 20.1 g F51 – Pan-STARRS 1, Haleakala MPS 476037
2013 08 30.30882 21 01 24.600 +21 42 32.05 20.1 g F51 – Pan-STARRS 1, Haleakala MPS 476037
2013 08 30.45342 21 01 18.510 +21 40 09.40 19.7 r F51 – Pan-STARRS 1, Haleakala MPS 476037
2013 08 30.46408 21 01 18.070 +21 39 58.71 19.9 r F51 – Pan-STARRS 1, Haleakala MPS 476037
2013 09 03.29157 20 59 04.236 +20 34 39.81 20.2 g F51 – Pan-STARRS 1, Haleakala MPS 476037
2013 09 03.30426 20 59 03.789 +20 34 26.56 20.3 g F51 – Pan-STARRS 1, Haleakala MPS 476037
2013 10 28.14769 21 21 01.10 +04 58 06.2 20.5 V G96 – Mt. Lemmon Survey MPS 485084
2013 10 28.15591 21 21 01.63 +04 58 00.2 20.9 V G96 – Mt. Lemmon Survey MPS 485084
2013 10 28.16663 21 21 02.40 +04 57 53.2 20.5 V G96 – Mt. Lemmon Survey MPS 485084
2016 06 08.44709 23 46 42.22 +18 41 57.4 21.4 V G96 – Mt. Lemmon Survey MPS 716348
2016 06 08.45128 23 46 42.61 +18 42 01.4 21.4 V G96 – Mt. Lemmon Survey MPS 716348
2016 06 08.45545 23 46 42.97 +18 42 04.4 21.0 V G96 – Mt. Lemmon Survey MPS 716348
2016 07 22.54901 00 44 23.435 +25 56 27.87 20.7 i F51 – Pan-STARRS 1, Haleakala MPS 721494
2016 07 22.57330 00 44 24.705 +25 56 37.20 21.1 i F51 – Pan-STARRS 1, Haleakala MPS 721494
2016 07 22.58548 00 44 25.362 +25 56 42.57 21.0 i F51 – Pan-STARRS 1, Haleakala MPS 721494
2016 10 01.19124 00 37 07.92 +20 29 02.5 19.7 V 703 – Catalina Sky Survey MPS 753626
2016 10 01.19726 00 37 07.60 +20 28 56.7 20.0 V 703 – Catalina Sky Survey MPS 753626
2016 10 01.20328 00 37 07.26 +20 28 51.5 21.4 V 703 – Catalina Sky Survey MPS 753626
2016 10 01.23986 00 37 05.15 +20 28 11.3 20.9 V 703 – Catalina Sky Survey MPS 2151077
2016 10 01.34959 00 36 58.69 +20 26 05.7 19.4 V G96 – Mt. Lemmon Survey MPS 733908
2016 10 01.35408 00 36 58.40 +20 26 00.7 19.7 V G96 – Mt. Lemmon Survey MPS 733908
2016 10 01.36103 00 36 58.09 +20 25 52.2 19.2 V G96 – Mt. Lemmon Survey MPS 733908
2016 10 01.36533 00 36 57.83 +20 25 47.2 19.6 V G96 – Mt. Lemmon Survey MPS 733908
2016 10 05.30561 00 33 19.31 +19 09 14.7 20.0 G G45 – Space Surveillance Telescope, Atom Site MPS 1608872
2016 10 05.37442 00 33 15.35 +19 07 52.3 19.9 G G45 – Space Surveillance Telescope, Atom Site MPS 1608872
2016 10 05.41421 00 33 13.12 +19 07 04.2 20.3 G G45 – Space Surveillance Telescope, Atom Site MPS 1608872
2016 10 05.45240 00 33 10.92 +19 06 17.8 19.4 G G45 – Space Surveillance Telescope, Atom Site MPS 1608872
2016 10 09.30431 00 29 44.670 +17 48 01.57 19.6 i F51 – Pan-STARRS 1, Haleakala MPS 735868
2016 10 09.31659 00 29 43.989 +17 47 46.46 19.6 i F51 – Pan-STARRS 1, Haleakala MPS 735868
2016 10 09.32887 00 29 43.313 +17 47 31.27 19.6 i F51 – Pan-STARRS 1, Haleakala MPS 735868
2016 10 09.34121 00 29 42.627 +17 47 16.05 19.6 i F51 – Pan-STARRS 1, Haleakala MPS 735868
2016 10 19.42291 00 21 47.619 +14 16 02.19 19.7 i F51 – Pan-STARRS 1, Haleakala MPS 737263
2016 10 19.43446 00 21 47.103 +14 15 47.62 19.8 i F51 – Pan-STARRS 1, Haleakala MPS 737263
2016 10 19.44609 00 21 46.590 +14 15 33.05 19.8 i F51 – Pan-STARRS 1, Haleakala MPS 737263
